Weather History for KGFK - May, 2014

Change the Weather History Date:

Sunday, May 11, 2014

  Actual Average Record
Temperature  
Mean Temperature 52 °F 53 °F  
Max Temperature 61 °F 67 °F 88 °F (1977)
Min Temperature 42 °F 40 °F 20 °F (1946)
Degree Days  
Heating Degree Days 13 12  
Month to date heating degree days 194 154  
Since 1 July heating degree days 10368 9232  
Cooling Degree Days 0 0  
Month to date cooling degree days 0 0  
Year to date cooling degree days 0 1  
Growing Degree Days 2 (Base 50)    
Moisture  
Dew Point 47 °F    
Average Humidity 80    
Maximum Humidity 93    
Minimum Humidity 66    
Precipitation  
Precipitation T in 0.08 in 1.38 in (2004)
Month to date precipitation 0.79 0.81  
Year to date precipitation 5.41 3.85  
Snow  
Snow 0.00 in 0.00 in - ()
Month to date snowfall 0.0 0.1  
Since 1 July snowfall 60.3 47.4  
Snow Depth 0.00 in    
Sea Level Pressure  
Sea Level Pressure 29.86 in    
Wind  
Wind Speed 11 mph (North)    
Max Wind Speed 23 mph    
Max Gust Speed 29 mph    
Visibility 10 miles    
Events      
T = Trace of Precipitation, MM = Missing Value Source: NWS Daily Summary

Daily Weather History Graph

Daily Weather History Graph

Search for Another Location

Airport or City:

Trip Planner

Search our weather history database for the weather conditions in past years. The results will help you decide how hot, cold, wet, or windy it might be!

Date:

Astronomy

May. 11, 2014 Rise Set
Actual Time 5:55 AM CDT 8:55 PM CDT
Civil Twilight 5:19 AM CDT 9:32 PM CDT
Nautical Twilight 4:32 AM CDT 10:19 PM CDT
Astronomical Twilight 3:35 AM CDT 11:16 PM CDT
Moon 5:39 PM CDT (5/11) 4:17 AM CDT (5/11)
Length of Visible Light 16h 12m
Length of Day
15h 00m
Waxing Gibbous, 89% of the Moon is Illuminated
May 11
Waxing Gibbous
May 14
Full
May 21
Last Quarter
May 28
New
Jun 5
First Quarter

Hourly Weather History & Observations

Time (CDT) Temp. Windchill Dew Point Humidity Pressure Visibility Wind Dir Wind Speed Gust Speed Precip Events Conditions
12:53 AM 54.0 °F - 50.0 °F 86% 29.74 in 10.0 mi ENE 10.4 mph - 0.01 in   Overcast
1:53 AM 54.0 °F - 48.9 °F 83% 29.74 in 10.0 mi ENE 9.2 mph - N/A   Overcast
2:53 AM 54.0 °F - 48.9 °F 83% 29.74 in 10.0 mi ENE 6.9 mph - N/A   Overcast
3:53 AM 53.1 °F - 48.9 °F 86% 29.74 in 10.0 mi ENE 4.6 mph - 0.00 in   Overcast
4:53 AM 50.0 °F - 46.9 °F 89% 29.75 in 10.0 mi North 6.9 mph - N/A   Scattered Clouds
5:53 AM 44.1 °F 40.8 °F 43.0 °F 96% 29.77 in 10.0 mi NNE 5.8 mph - N/A   Scattered Clouds
6:53 AM 48.9 °F - 46.9 °F 93% 29.80 in 10.0 mi NNE 5.8 mph - N/A   Mostly Cloudy
7:53 AM 53.1 °F - 48.0 °F 83% 29.83 in 10.0 mi Calm Calm - N/A   Overcast
8:01 AM 53.6 °F - 48.2 °F 82% 29.81 in 10.0 mi NNE 3.5 mph - N/A   Mostly Cloudy
8:37 AM 53.6 °F - 48.2 °F 82% 29.78 in 10.0 mi North 13.8 mph - N/A   Scattered Clouds
8:53 AM 53.1 °F - 48.9 °F 86% 29.81 in 10.0 mi North 11.5 mph - N/A   Mostly Cloudy
9:53 AM 55.9 °F - 48.9 °F 77% 29.83 in 10.0 mi North 10.4 mph - N/A   Mostly Cloudy
10:06 AM 55.4 °F - 48.2 °F 77% 29.82 in 10.0 mi North 10.4 mph - N/A   Mostly Cloudy
10:53 AM 55.0 °F - 48.0 °F 77% 29.86 in 10.0 mi NNE 3.5 mph - N/A   Overcast
11:53 AM 55.9 °F - 50.0 °F 80% 29.89 in 10.0 mi NNW 6.9 mph - N/A   Overcast
12:53 PM 55.9 °F - 50.0 °F 80% 29.88 in 10.0 mi NNW 9.2 mph - N/A   Overcast
1:53 PM 55.9 °F - 50.0 °F 80% 29.90 in 10.0 mi NNW 8.1 mph - N/A   Overcast
2:53 PM 60.1 °F - 51.1 °F 72% 29.88 in 10.0 mi NW 6.9 mph - N/A   Overcast
3:24 PM 59.0 °F - 51.8 °F 77% 29.88 in 10.0 mi WNW 13.8 mph - N/A   Mostly Cloudy
3:53 PM 57.9 °F - 48.9 °F 72% 29.88 in 10.0 mi NW 15.0 mph - N/A   Overcast
4:53 PM 59.0 °F - 48.9 °F 69% 29.90 in 10.0 mi NNW 12.7 mph - N/A   Overcast
5:53 PM 55.9 °F - 45.0 °F 67% 29.92 in 10.0 mi NNW 15.0 mph - N/A   Overcast
6:50 PM 53.6 °F - 44.6 °F 72% 29.90 in 10.0 mi NNW 15.0 mph - N/A   Mostly Cloudy
6:53 PM 54.0 °F - 45.0 °F 72% 29.91 in 10.0 mi NNW 17.3 mph - N/A   Overcast
7:18 PM 51.8 °F - 44.6 °F 76% 29.90 in 10.0 mi NNW 18.4 mph - N/A   Mostly Cloudy
7:53 PM 51.1 °F - 43.0 °F 74% 29.94 in 10.0 mi NNW 17.3 mph 23.0 mph N/A   Overcast
8:53 PM 48.0 °F - 42.1 °F 80% 29.95 in 10.0 mi NNW 21.9 mph 28.8 mph N/A   Overcast
9:53 PM 46.9 °F - 41.0 °F 80% 29.96 in 10.0 mi NNW 17.3 mph 26.5 mph N/A   Overcast
10:53 PM 46.0 °F 39.0 °F 39.9 °F 79% 29.98 in 10.0 mi NNW 17.3 mph - N/A   Overcast
11:53 PM 43.0 °F 36.0 °F 39.0 °F 86% 29.99 in 10.0 mi NNW 13.8 mph 26.5 mph N/A   Overcast